Weather History for KPIB - March, 2013

Change the Weather History Date:

Saturday, March 9, 2013

  Actual Average Record
Temperature  
Mean Temperature 58 °F -  
Max Temperature 73 °F 65 °F 80 °F (2009)
Min Temperature 44 °F 44 °F 30 °F (2008)
Degree Days  
Heating Degree Days 6    
Growing Degree Days 8 (Base 50)    
Moisture  
Dew Point 44 °F    
Average Humidity 61    
Maximum Humidity 87    
Minimum Humidity 22    
Precipitation  
Precipitation 0.00 in - - ()
Sea Level Pressure  
Sea Level Pressure 30.12 in    
Wind  
Wind Speed 5 mph (SSE)    
Max Wind Speed 17 mph    
Max Gust Speed 22 mph    
Visibility 10 miles    
Events      
Averages and records for this station are not official NWS values.
T = Trace of Precipitation, MM = Missing Value Source: NWS Daily Summary

Daily Weather History Graph

Daily Weather History Graph

Search for Another Location

Airport or City:

Trip Planner

Search our weather history database for the weather conditions in past years. The results will help you decide how hot, cold, wet, or windy it might be!

Date:

Astronomy

Mar. 09, 2013 Rise Set
Actual Time 6:14 AM CST 6:01 PM CST
Civil Twilight 5:50 AM CST 6:25 PM CST
Nautical Twilight 5:22 AM CST 6:53 PM CST
Astronomical Twilight 4:53 AM CST 7:22 PM CST
Moon 4:31 AM CST (3/9) 4:08 PM CST (3/9)
Length of Visible Light 12h 35m
Length of Day
11h 47m
Waning Crescent, 5% of the Moon is Illuminated
Mar 9
Waning Crescent
Mar 11
New
Mar 19
First Quarter
Mar 27
Full
Apr 2
Last Quarter

Hourly Weather History & Observations

Time (CST) Temp. Dew Point Humidity Pressure Visibility Wind Dir Wind Speed Gust Speed Precip Events Conditions
12:15 AM 48.2 °F 42.8 °F 82% 30.20 in 10.0 mi Calm Calm - N/A   Clear
12:35 AM 46.4 °F 39.2 °F 76% 30.19 in 10.0 mi Calm Calm - N/A   Clear
12:55 AM 48.2 °F 41.0 °F 76% 30.19 in 10.0 mi Calm Calm - N/A   Clear
1:15 AM 48.2 °F 41.0 °F 76% 30.19 in 10.0 mi Calm Calm - N/A   Clear
1:35 AM 46.4 °F 41.0 °F 81% 30.17 in 10.0 mi Calm Calm - N/A   Clear
1:55 AM 48.2 °F 41.0 °F 76% 30.16 in 10.0 mi Calm Calm - N/A   Clear
2:15 AM 46.4 °F 41.0 °F 81% 30.16 in 10.0 mi Calm Calm - N/A   Clear
2:35 AM 46.4 °F 41.0 °F 81% 30.15 in 10.0 mi Calm Calm - N/A   Clear
2:55 AM 46.4 °F 41.0 °F 81% 30.14 in 10.0 mi Calm Calm - N/A   Clear
3:15 AM 46.4 °F 42.8 °F 87% 30.14 in 10.0 mi Calm Calm - N/A   Clear
3:35 AM 48.2 °F 42.8 °F 82% 30.13 in 10.0 mi Calm Calm - N/A   Clear
3:55 AM 48.2 °F 41.0 °F 76% 30.14 in 10.0 mi Calm Calm - N/A   Clear
4:15 AM 46.4 °F 41.0 °F 81% 30.14 in 10.0 mi Calm Calm - N/A   Clear
4:35 AM 46.4 °F 41.0 °F 81% 30.14 in 10.0 mi Calm Calm - N/A   Clear
4:55 AM 46.4 °F 41.0 °F 81% 30.15 in 10.0 mi Calm Calm - N/A   Clear
5:15 AM 46.4 °F 42.8 °F 87% 30.16 in 10.0 mi Calm Calm - N/A   Clear
5:35 AM 46.4 °F 42.8 °F 87% 30.16 in 10.0 mi Calm Calm - N/A   Clear
5:55 AM 46.4 °F 42.8 °F 87% 30.17 in 10.0 mi Calm Calm - N/A   Clear
6:15 AM 46.4 °F 41.0 °F 81% 30.18 in 7.0 mi Calm Calm - N/A   Clear
6:35 AM 44.6 °F 41.0 °F 87% 30.18 in 6.0 mi Calm Calm - N/A   Clear
6:55 AM 46.4 °F 42.8 °F 87% 30.18 in 7.0 mi Calm Calm - N/A   Clear
7:15 AM 48.2 °F 42.8 °F 82% 30.19 in 9.0 mi Calm Calm - N/A   Clear
7:35 AM 48.2 °F 42.8 °F 82% 30.19 in 8.0 mi Calm Calm - N/A   Clear
7:55 AM 50.0 °F 42.8 °F 76% 30.19 in 8.0 mi East 3.5 mph - N/A   Clear
8:15 AM 51.8 °F 42.8 °F 71% 30.19 in 10.0 mi ESE 6.9 mph - N/A   Clear
8:35 AM 55.4 °F 41.0 °F 58% 30.19 in 10.0 mi SE 6.9 mph - N/A   Clear
8:56 AM 57.2 °F 42.8 °F 59% 30.19 in 10.0 mi SE 6.9 mph - N/A   Clear
9:15 AM 60.8 °F 42.8 °F 52% 30.19 in 10.0 mi SE 9.2 mph - N/A   Clear
9:35 AM 62.6 °F 41.0 °F 45% 30.19 in 10.0 mi SSE 8.1 mph - N/A   Clear
9:55 AM 64.4 °F 41.0 °F 42% 30.19 in 10.0 mi SSE 6.9 mph - N/A   Clear
10:15 AM 64.4 °F 39.2 °F 40% 30.19 in 10.0 mi SSE 8.1 mph - N/A   Clear
10:35 AM 66.2 °F 39.2 °F 37% 30.18 in 10.0 mi SSE 9.2 mph - N/A   Clear
10:55 AM 69.8 °F 39.2 °F 33% 30.19 in 10.0 mi South 9.2 mph - N/A   Clear
11:15 AM 71.6 °F 37.4 °F 29% 30.18 in 10.0 mi South 10.4 mph 19.6 mph N/A   Clear
11:35 AM 69.8 °F 35.6 °F 28% 30.17 in 10.0 mi South 11.5 mph - N/A   Clear
11:55 AM 71.6 °F 33.8 °F 25% 30.17 in 10.0 mi SSE 13.8 mph - N/A   Clear
12:15 PM 71.6 °F 32.0 °F 23% 30.16 in 10.0 mi South 9.2 mph 19.6 mph N/A   Clear
12:35 PM 71.6 °F 32.0 °F 23% 30.15 in 10.0 mi South 12.7 mph 19.6 mph N/A   Clear
12:55 PM 73.4 °F 32.0 °F 22% 30.14 in 10.0 mi South 13.8 mph 17.3 mph N/A   Clear
1:15 PM 73.4 °F 33.8 °F 23% 30.13 in 10.0 mi SSE 12.7 mph 19.6 mph N/A   Clear
1:35 PM 73.4 °F 33.8 °F 23% 30.12 in 10.0 mi SSE 17.3 mph 20.7 mph N/A   Clear
1:55 PM 73.4 °F 35.6 °F 25% 30.11 in 10.0 mi SSE 10.4 mph 21.9 mph N/A   Clear
2:15 PM 71.6 °F 37.4 °F 29% 30.10 in 10.0 mi SE 9.2 mph - N/A   Clear
2:35 PM 71.6 °F 37.4 °F 29% 30.10 in 10.0 mi South 11.5 mph - N/A   Clear
2:55 PM 71.6 °F 37.4 °F 29% 30.10 in 10.0 mi South 16.1 mph 20.7 mph N/A   Clear
3:15 PM 69.8 °F 39.2 °F 33% 30.09 in 10.0 mi SSE 11.5 mph - N/A   Clear
3:35 PM 69.8 °F 41.0 °F 35% 30.09 in 10.0 mi SSE 12.7 mph - N/A   Clear
3:55 PM 68.0 °F 42.8 °F 40% 30.09 in 10.0 mi South 17.3 mph 20.7 mph N/A   Clear
4:15 PM 66.2 °F 46.4 °F 49% 30.09 in 10.0 mi South 11.5 mph 21.9 mph N/A   Clear
4:35 PM 66.2 °F 48.2 °F 52% 30.08 in 10.0 mi SSE 10.4 mph - N/A   Clear
4:55 PM 66.2 °F 48.2 °F 52% 30.06 in 10.0 mi SE 11.5 mph - N/A   Clear
5:15 PM 66.2 °F 50.0 °F 56% 30.07 in 10.0 mi SSE 11.5 mph - N/A   Clear
5:35 PM 66.2 °F 50.0 °F 56% 30.07 in 10.0 mi SSE 15.0 mph 18.4 mph N/A   Clear
5:55 PM 64.4 °F 50.0 °F 59% 30.08 in 9.0 mi SSE 17.3 mph - N/A   Clear
6:15 PM 64.4 °F 48.2 °F 56% 30.07 in 9.0 mi SSE 13.8 mph - N/A   Clear
6:35 PM 64.4 °F 48.2 °F 56% 30.06 in 10.0 mi SSE 12.7 mph - N/A   Clear
6:55 PM 62.6 °F 48.2 °F 59% 30.06 in 10.0 mi SSE 13.8 mph 21.9 mph N/A   Clear
7:15 PM 62.6 °F 48.2 °F 59% 30.07 in 10.0 mi SE 12.7 mph - N/A   Clear
7:35 PM 62.6 °F 48.2 °F 59% 30.06 in 10.0 mi SE 10.4 mph - N/A   Clear
7:55 PM 62.6 °F 50.0 °F 63% 30.06 in 10.0 mi SE 11.5 mph - N/A   Clear
8:15 PM 62.6 °F 51.8 °F 68% 30.05 in 10.0 mi SE 11.5 mph - N/A   Clear
8:35 PM 60.8 °F 51.8 °F 72% 30.06 in 10.0 mi SE 10.4 mph - N/A   Clear
8:55 PM 60.8 °F 53.6 °F 77% 30.05 in 10.0 mi SE 11.5 mph - N/A   Clear
9:15 PM 60.8 °F 53.6 °F 77% 30.04 in 10.0 mi SE 9.2 mph 17.3 mph N/A   Partly Cloudy
9:35 PM 60.8 °F 53.6 °F 77% 30.04 in 10.0 mi SSE 13.8 mph - N/A   Mostly Cloudy
9:55 PM 60.8 °F 53.6 °F 77% 30.03 in 10.0 mi SE 12.7 mph 19.6 mph N/A   Mostly Cloudy
10:15 PM 60.8 °F 53.6 °F 77% 30.05 in 10.0 mi SE 11.5 mph - N/A   Overcast
10:36 PM 60.8 °F 53.6 °F 77% 30.04 in 10.0 mi SE 11.5 mph 17.3 mph N/A   Overcast
10:55 PM 60.8 °F 53.6 °F 77% 30.04 in 10.0 mi SE 12.7 mph 18.4 mph N/A   Mostly Cloudy
11:15 PM 60.8 °F 53.6 °F 77% 30.02 in 10.0 mi ESE 11.5 mph - N/A   Mostly Cloudy
11:35 PM 60.8 °F 53.6 °F 77% 30.02 in 10.0 mi SE 9.2 mph - N/A   Scattered Clouds
11:55 PM 60.8 °F 53.6 °F 77% 30.03 in 10.0 mi SSE 9.2 mph - N/A   Mostly Cloudy